カタログに戻る

MIDAS 5

STRONGBACK

運用中軍事PO
NORAD 271·PAYLOAD·🇺🇸 United States

打ち上げ Apr 9, 1962 から Vandenberg Space Force Base

Loading…

次のパス (今後24時間)

TLE

最新Source: Space-Track

元期: Sep 5, 2026, 13:15 UTC

1 00271U 62010A   26248.55269798  .00000007  00000-0  89538-3 0  9995
2 00271  86.6590 304.1940 0326924 290.9763  65.6455  9.41308670213239

AllMySatでMIDAS 5をリアルタイム追跡

Download on the App Store